Location: Julian California
(33.0790°N, 116.6010°W)
Time: 00:10:34
(UTC-07:00)

Cosmos 1420 Rocket - Pass Details

Date: 14 June 2018
Orbit: 755 x 781 km, 74.0° (Epoch: 14 August)

Event Time Altitude Azimuth Distance (km) Brightness Sun altitude
Rises 22:35:46 0° 342° (NNW) 3,209 8.4 -25.5°
Reaches altitude 10° 22:38:08 10° 342° (NNW) 2,280 7.4 -25.8°
Maximum altitude 22:43:19 86° 255° (WSW) 759 3.8 -26.4°
Enters shadow 22:43:21 86° 232° (SW) 759 3.8 -26.4°
